Regional Weather Roundup
Issued by NWS

Home | Current Version | Previous Version | Graphics & Text | Print | Product List | Glossary On
Versions: 1 2 3 4 5 6 7 8 9 10 11 12 13 14 15 16 17 18 19 20 21 22 23 24 25 26 27 28 29 30 31 32 33 34 35 36 37 38 39 40 41 42 43 44 45 46 47 48 49 50
000
ASUS43 KFSD 220410
RWRSD

WEATHER ROUNDUP FOR SOUTH DAKOTA
NATIONAL WEATHER SERVICE SIOUX FALLS SD
1000 PM CST WED FEB 21 2018

NOTE: "FAIR" INDICATES FEW OR NO CLOUDS BELOW 12,000 FEET WITH NO
SIGNIFICANT WEATHER AND/OR OBSTRUCTIONS TO VISIBILITY.


SDZ001>005-009-010-012>017-220500-
NORTHWEST AND NORTH CENTRAL SOUTH DAKOTA

CITY           SKY/WX    TMP DP  RH WIND       PRES   REMARKS
BUFFALO          N/A     -4 -11  72 S5        30.13R WCI -15
FAITH            N/A     -5  -9  83 SE7       30.26S WCI -19
MOBRIDGE       FAIR       5  -2  72 SE15      30.33F WCI -13
$$

SDZ012>016-024>037-041>051-057-063-072>074-220500-
SOUTHWEST AND SOUTH CENTRAL SOUTH DAKOTA

CITY           SKY/WX    TMP DP  RH WIND       PRES   REMARKS
RAPID CTY ARPT FAIR       8  -2  63 S14       30.20R WCI  -8
PIERRE         FAIR      12   6  77 SE22      30.35S WCI  -7
CUSTER         FAIR       9  -3  58 W5        30.08S WCI   1
ELLSWORTH AFB  FAIR       2  -4  74 CALM      30.18S
PHILIP         FAIR       6   1  80 VRB5      30.29S WCI  -3
PINE RIDGE     FAIR      15   8  73 SW6       30.24F WCI   6
SPEARFISH        N/A      5  -2  72 S5G12     30.14F WCI  -4
WINNER         FAIR      20   8  60 S26G33    30.35F WCI   2
$$

SDZ004>011-016>023-039-040-220500-
NORTHEAST SOUTH DAKOTA

CITY           SKY/WX    TMP DP  RH WIND       PRES   REMARKS
ABERDEEN       FAIR       2  -5  72 SE5       30.50R WCI  -8
WATERTOWN      FAIR       7   1  76 SE9       30.48S WCI  -7
BROOKINGS      FAIR       8   1  73 SE10      30.51F WCI  -6
SISSETON         N/A     -2  -6  83 CALM      30.54R
$$

SDZ017-020-022-023-036>040-048>070-220500-
SOUTHEAST SOUTH DAKOTA

CITY           SKY/WX    TMP DP  RH WIND       PRES   REMARKS
SIOUX FALLS    CLOUDY    14   6  70 E7        30.53F WCI   4
HURON          FAIR      10   3  73 S13       30.49S WCI  -5
CHAMBERLAIN    FAIR      10   3  75 E10       30.42F WCI  -4
MITCHELL       FAIR      12   5  73 S12       30.53R WCI  -2
YANKTON        MOCLDY    16   9  74 SE6       30.54S WCI   7
$$

ABBREVIATIONS USED IN REMARKS
   TC - TEMPERATURE IN CELSIUS
  WCI - WIND CHILL INDEX
   HX - HEAT INDEX
  VSB - VISIBILITY





USA.gov is the U.S. government's official web portal to all federal, state and local government web resources and services.